Location: Santa Cristina
(46.5667°N, 11.7167°E)
Time: 17:23:34
(UTC+00:00)

USA 234 - Pass Details

Date: 21 April 2021
Orbit: 1102 x 1105 km, 123.0° (Epoch: 18 April)

Event Time Altitude Azimuth Distance (km) Brightness Sun altitude
Rises 00:52:08 0° 55° (NE) 3,927 7.1 -27.4°
Reaches altitude 10° 00:54:48 10° 62° (ENE) 2,966 6.2 -27.2°
Maximum altitude 01:00:56 41° 131° (SE) 1,544 3.9 -26.7°
Enters shadow 01:01:54 39° 152° (SSE) 1,594 3.8 -26.6°
